Regional Weather Roundup
Issued by NWS

Home | Current Version | Previous Version | Text Only | Print | Product List | Glossary Off
Versions: 1 2 3 4 5 6 7 8 9 10 11 12 13 14 15 16 17 18 19 20 21 22 23 24 25 26 27 28 29 30 31 32 33 34 35 36 37 38 39 40 41 42 43 44 45 46 47 48 49 50

603
ASUS43 KDTX 270101
RWRMI
MICHIGAN HOURLY REGIONAL WEATHER ROUNDUP
NATIONAL WEATHER SERVICE DETROIT/PONTIAC MI
900 PM EDT MON JUN 26 2017

NOTE: "FAIR" INDICATES FEW OR NO CLOUDS BELOW 12,000 FEET WITH NO
SIGNIFICANT WEATHER AND/OR OBSTRUCTION TO VISIBILITY.

MIZ047>049-052>055-059>063-066>070-074>076-081>083-270200-
SOUTHEAST LOWER MICHIGAN

CITY           SKY/WX    TMP DP  RH WIND       PRES   REMARKS
ADRIAN         CLOUDY    62  46  55 SW9       29.99S
ALMA           PTCLDY    56  45  65 W14       29.97S
ANN ARBOR      CLOUDY    63  43  48 W12       29.97R
BAD AXE        PTCLDY    60  46  60 NW8       29.94S
CARO           CLEAR     60  46  57 W12       29.94S
DETROIT CITY   CLEAR     65  41  41 W7        29.95F
DETROIT        MOCLDY    65  42  43 W9        29.96S
FLINT          CLOUDY    58  45  62 W10       29.97R
GROSSE ILE     PTCLDY    64  45  48 W3        29.95S
HILLSDALE      MOCLDY    61  41  48 NW14      30.00R
HOWELL         CLOUDY    55  48  76 W6        29.98S

CITY           SKY/WX    TMP DP  RH WIND       PRES   REMARKS
JACKSON        CLOUDY    59  46  62 W9        30.00R
LAMBERTVILLE   CLOUDY    62  47  57 SW9       29.98S
LANSING        PTCLDY    59  44  57 W14G21    29.99S
LAPEER         MOCLDY    63  43  47 NW7       29.95S
MASON          CLOUDY    59  45  59 W13       29.99S
MONROE         PTCLDY    63  47  57 SW10      29.96S
MT. CLEMENS    MOCLDY    65  41  41 W8        29.93S
PONTIAC        MOCLDY    63  42  46 W14       29.96R
PORT HOPE        N/A     62  45  53 W9        29.92R
PORT HURON     CLEAR     61  43  51 CALM      29.94S
TRI CITIES     PTCLDY    59  47  64 W9        29.96S
MIDLAND        MOCLDY    60  45  56 W8        29.95S
TROY           RAIN      65  41  40 W15G22    29.99R
SAGINAW HB     MOCLDY    61  43  51 SW8       29.95S
$$
MIZ043>046-050>051-056>058-064>065-071>073-077>080-270200-
SOUTHWEST LOWER MICHIGAN

CITY           SKY/WX    TMP DP  RH WIND       PRES   REMARKS
BATTLE CREEK   PTCLDY    58  44  60 W14       30.02S
BENTON HARBOR  PTCLDY    61  46  57 VRB5      30.03S
BIG RAPIDS     MOCLDY    55  44  67 W7        29.98S
COLDWATER      MOCLDY    61  42  49 NW12G17   30.01S
FREMONT        MOCLDY    56  46  70 NW6       30.00S
HOLLAND        PTCLDY    59  46  62 NW8       30.03S
GRAND RAPIDS   MOCLDY    57  45  64 NW14      30.00S
IONIA          FAIR      57  44  61 W12       29.99S
KALAMAZOO      PTCLDY    59  42  53 NW13      30.03R
LUDINGTON      MOCLDY    55  50  83 NW7       30.00S
MARSHALL       CLOUDY    59  43  53 W15G21    30.01R
MOUNT PLEASANT PTCLDY    57  44  60 W8        29.96S
MUSKEGON       MOCLDY    59  48  67 W6        30.01S
SOUTH HAVEN    PTCLDY    60  48  63 NW8       30.03S
$$
MIZ016>042-270200-
NORTHERN LOWER MICHIGAN

CITY           SKY/WX    TMP DP  RH WIND       PRES   REMARKS
ALPENA         LGT RAIN  54  54 100 W5        29.93S
BEAVER ISLAND  CLOUDY    56  47  72 NW6       29.98S
BELLAIRE       LGT RAIN  53  51  92 CALM      29.98R
CADILLAC       LGT RAIN  54  48  78 W7        29.97S
CHARLEVOIX     LGT RAIN  54  53  95 NW9       30.00S
FRANKFORT      CLOUDY    55  51  85 NW3       30.00R
GAYLORD        LGT RAIN  53  49  86 NW5       29.95S
GRAYLING       LGT RAIN  52  50  91 W12G17    29.96S
HARBOR SPRINGS DRIZZLE   52  51  97 NW5       29.96S
HOUGHTON LAKE  CLOUDY    56  46  69 W15G21    29.96S
MANISTEE       HVY RAIN  55  52  89 NW8       30.00R
OSCODA         CLOUDY    60  46  59 W15       29.92S
PELLSTON       LGT RAIN  53  49  86 NW9       29.96S
ROGERS CITY    DRIZZLE   54  52  94 NW6       29.93S
TRAVERSE CITY  LGT RAIN  56  51  84 N7        29.97R
$$
MIZ007>008-015-270200-
EASTERN UPPER MICHIGAN

CITY           SKY/WX    TMP DP  RH WIND       PRES   REMARKS
KINROSS        CLOUDY    51  45  79 NW13      29.95R
MACKINAC ISLAN CLOUDY    52  52 100 NW7       29.95S
NEWBERRY       MOCLDY    51  43  75 NW5       29.97R
S. S. MARIE    PTCLDY    51  42  71 W10       29.94R
MUNISING         N/A     58  48  69 NW6       29.97F
$$
MIZ004>006-011>014-085-270200-
CENTRAL UPPER MICHIGAN

CITY           SKY/WX    TMP DP  RH WIND       PRES   REMARKS
MANISTIQUE     PTCLDY    54  42  63 NW8       29.98R
ESCANABA       PTCLDY    61  44  53 W5        29.99S
MENOMINEE      CLEAR     58  52  80 W3        30.02S
SAWYER-GWINN   CLEAR     59  45  58 NW6       30.00S
$$
MIZ001>003-009>011-084-270200-
WESTERN UPPER MICHIGAN

CITY           SKY/WX    TMP DP  RH WIND       PRES   REMARKS
IRON MOUNTAIN  CLEAR     60  44  55 NW6       30.00S
HOUGHTON       CLEAR     57  46  66 W9        29.99S
COPPER HARBOR    N/A     60  47  61 N9        29.96F
IRONWOOD       PTCLDY    59  48  67 W6        30.04S
$$

ABBREVIATIONS USED IN REMARKS
   TC - TEMPERATURE IN CELSIUS
  WCI - WIND CHILL INDEX
   HX - HEAT INDEX
  VSB - VISIBILITY





USA.gov is the U.S. government's official web portal to all federal, state and local government web resources and services.